| time (UTC) | temp F | wind direction | speed MPH | gust MPH | rain 1hr in | rain 24hr in | rain mn in | humidity % | barometer mb |
| 20260906061022 | 85 | 168 | 0.0 | 0.0 | 0.00 | 0.00 | 0.00 | 86 | 974.8 |
| 20260906060519 | 84 | 158 | 0.0 | 0.0 | 0.00 | 0.00 | 0.00 | 87 | 974.5 |
| 20260906060016 | 84 | 180 | 0.0 | 0.0 | 0.00 | 0.00 | 0.00 | 88 | 974.7 |
| 20260906055512 | 84 | 176 | 0.0 | 0.0 | 0.00 | 0.00 | 0.00 | 87 | 975.0 |
| 20260906055007 | 84 | 339 | 0.0 | 1.0 | 0.00 | 0.00 | 0.00 | 86 | 975.1 |
| 20260906054507 | 84 | 345 | 0.0 | 0.0 | 0.00 | 0.00 | 0.00 | 87 | 975.5 |
| 20260906054002 | 84 | 345 | 0.0 | 0.0 | 0.00 | 0.00 | 0.00 | 88 | 975.4 |
| 20260906053459 | 84 | 166 | 0.0 | 0.0 | 0.00 | 0.00 | 0.00 | 88 | 975.4 |
| 20260906052954 | 84 | 166 | 0.0 | 0.0 | 0.00 | 0.00 | 0.00 | 87 | 975.5 |
| 20260906052450 | 84 | 138 | 0.0 | 1.0 | 0.00 | 0.00 | 0.00 | 89 | 975.6 |
| 20260906051947 | 83 | 161 | 0.0 | 0.0 | 0.00 | 0.00 | 0.00 | 87 | 975.7 |
| 20260906051442 | 83 | 126 | 0.0 | 1.0 | 0.00 | 0.00 | 0.00 | 87 | 975.7 |
| 20260906050937 | 84 | 70 | 0.0 | 3.0 | 0.00 | 0.00 | 0.00 | 86 | 975.7 |
| 20260906050437 | 84 | 345 | 1.0 | 1.0 | 0.00 | 0.00 | 0.00 | 87 | 975.9 |
| 20260906045936 | 84 | 155 | 0.0 | 1.0 | 0.00 | 0.00 | 0.00 | 86 | 976.0 |
| 20260906045435 | 84 | 161 | 0.0 | 0.0 | 0.00 | 0.00 | 0.00 | 87 | 976.3 |
| 20260906044931 | 84 | 74 | 0.0 | 0.0 | 0.00 | 0.00 | 0.00 | 87 | 976.6 |
| 20260906044426 | 84 | 60 | 1.0 | 2.0 | 0.00 | 0.00 | 0.00 | 88 | 976.7 |
| 20260906043921 | 84 | 149 | 0.0 | 1.0 | 0.00 | 0.00 | 0.00 | 88 | 976.5 |
| 20260906043417 | 84 | 146 | 1.0 | 2.0 | 0.00 | 0.00 | 0.00 | 88 | 976.6 |
| 20260906042913 | 83 | 153 | 0.0 | 1.0 | 0.00 | 0.00 | 0.00 | 90 | 976.7 |
| 20260906042411 | 83 | 130 | 0.0 | 1.0 | 0.00 | 0.00 | 0.00 | 89 | 976.7 |
| 20260906041907 | 83 | 57 | 0.0 | 0.0 | 0.00 | 0.00 | 0.00 | 88 | 976.7 |
| 20260906041402 | 82 | 41 | 1.0 | 2.0 | 0.00 | 0.00 | 0.00 | 90 | 976.8 |
| 20260906040857 | 82 | 63 | 0.0 | 3.0 | 0.00 | 0.00 | 0.00 | 89 | 976.8 |
| 20260906040352 | 82 | 39 | 1.0 | 1.0 | 0.00 | 0.00 | 0.00 | 90 | 976.9 |
| 20260906035848 | 82 | 110 | 0.0 | 0.0 | 0.00 | 0.00 | 0.00 | 90 | 976.8 |
| 20260906035343 | 82 | 62 | 1.0 | 2.0 | 0.00 | 0.00 | 0.00 | 90 | 977.0 |
| 20260906034838 | 82 | 131 | 0.0 | 2.0 | 0.00 | 0.00 | 0.00 | 90 | 977.2 |
| 20260906034333 | 81 | 179 | 0.0 | 0.0 | 0.00 | 0.00 | 0.00 | 91 | 977.0 |
| 20260906033829 | 81 | 124 | 0.0 | 1.0 | 0.00 | 0.00 | 0.00 | 93 | 977.2 |
| 20260906033328 | 81 | 44 | 1.0 | 2.0 | 0.00 | 0.00 | 0.00 | 91 | 976.9 |
| 20260906032825 | 81 | 124 | 1.0 | 2.0 | 0.00 | 0.00 | 0.00 | 91 | 977.1 |
| 20260906032320 | 81 | 9 | 0.0 | 1.0 | 0.00 | 0.00 | 0.00 | 91 | 977.2 |
| 20260906031815 | 82 | 153 | 0.0 | 2.0 | 0.00 | 0.00 | 0.00 | 92 | 977.3 |
| 20260906031311 | 82 | 157 | 0.0 | 0.0 | 0.00 | 0.00 | 0.00 | 92 | 977.1 |
| 20260906030810 | 81 | 164 | 0.0 | 0.0 | 0.00 | 0.00 | 0.00 | 93 | 977.2 |
| 20260906030306 | 80 | 157 | 0.0 | 1.0 | 0.00 | 0.00 | 0.00 | 92 | 977.3 |
| 20260906025805 | 81 | 75 | 1.0 | 3.0 | 0.00 | 0.00 | 0.00 | 92 | 977.3 |
| 20260906025259 | 80 | 65 | 1.0 | 2.0 | 0.00 | 0.00 | 0.00 | 92 | 977.2 |
| 20260906024758 | 81 | 86 | 1.0 | 2.0 | 0.00 | 0.00 | 0.00 | 91 | 977.6 |
| 20260906024257 | 80 | 155 | 0.0 | 1.0 | 0.00 | 0.00 | 0.00 | 94 | 977.5 |
| 20260906023753 | 80 | 152 | 0.0 | 0.0 | 0.00 | 0.00 | 0.00 | 93 | 977.3 |
| 20260906023248 | 80 | 130 | 0.0 | 0.0 | 0.00 | 0.00 | 0.00 | 92 | 977.2 |
| 20260906022743 | 80 | 141 | 0.0 | 0.0 | 0.00 | 0.00 | 0.00 | 92 | 977.1 |
| 20260906022233 | 81 | 153 | 0.0 | 1.0 | 0.00 | 0.00 | 0.00 | 92 | 977.5 |
| 20260906021729 | 82 | 149 | 0.0 | 1.0 | 0.00 | 0.00 | 0.00 | 93 | 977.3 |
| 20260906021227 | 81 | 150 | 0.0 | 0.0 | 0.00 | 0.00 | 0.00 | 95 | 977.5 |
| 20260906020722 | 80 | 152 | 0.0 | 0.0 | 0.00 | 0.00 | 0.00 | 94 | 977.7 |
| 20260906020217 | 80 | 153 | 0.0 | 0.0 | 0.00 | 0.00 | 0.00 | 96 | 977.5 |
| 20260906015712 | 79 | 144 | 0.0 | 0.0 | 0.00 | 0.00 | 0.00 | 95 | 977.5 |
| 20260906015210 | 78 | 150 | 0.0 | 1.0 | 0.00 | 0.00 | 0.00 | 96 | 977.2 |
| 20260906014705 | 78 | 169 | 0.0 | 0.0 | 0.00 | 0.00 | 0.00 | 97 | 977.2 |
| 20260906014201 | 78 | 159 | 0.0 | 0.0 | 0.00 | 0.00 | 0.00 | 97 | 977.1 |
| 20260906013657 | 77 | 159 | 0.0 | 0.0 | 0.00 | 0.00 | 0.00 | 97 | 977.0 |
| 20260906013152 | 77 | 150 | 0.0 | 1.0 | 0.00 | 0.00 | 0.00 | 98 | 977.0 |
| 20260906012651 | 77 | 159 | 0.0 | 1.0 | 0.00 | 0.00 | 0.00 | 97 | 976.9 |
| 20260906012145 | 78 | 204 | 0.0 | 0.0 | 0.00 | 0.00 | 0.00 | 96 | 976.9 |
| 20260906011642 | 79 | 209 | 0.0 | 0.0 | 0.00 | 0.00 | 0.00 | 97 | 976.9 |
| 20260906011136 | 78 | 208 | 0.0 | 0.0 | 0.00 | 0.00 | 0.00 | 97 | 976.8 |
| 20260906010632 | 78 | 206 | 0.0 | 0.0 | 0.00 | 0.00 | 0.00 | 96 | 976.8 |
| 20260906010128 | 78 | 208 | 0.0 | 0.0 | 0.00 | 0.00 | 0.00 | 98 | 976.9 |
| 20260906005627 | 78 | 208 | 0.0 | 0.0 | 0.00 | 0.00 | 0.00 | 97 | 976.6 |
| 20260906005126 | 78 | 210 | 0.0 | 0.0 | 0.00 | 0.00 | 0.00 | 98 | 976.6 |
| 20260906004620 | 78 | 210 | 0.0 | 0.0 | 0.00 | 0.00 | 0.00 | 98 | 976.8 |
| 20260906004114 | 77 | 210 | 0.0 | 0.0 | 0.00 | 0.00 | 0.00 | 99 | 976.4 |
| 20260906003611 | 77 | 210 | 0.0 | 0.0 | 0.00 | 0.00 | 0.00 | 98 | 976.5 |
| 20260906003107 | 77 | 210 | 0.0 | 0.0 | 0.00 | 0.00 | 0.00 | 99 | 976.3 |
| 20260906002607 | 76 | 210 | 0.0 | 0.0 | 0.00 | 0.00 | 0.00 | 99 | 976.3 |
| 20260906002101 | 75 | 210 | 0.0 | 0.0 | 0.00 | 0.00 | 0.00 | 99 | 976.2 |
| 20260906001556 | 74 | 211 | 0.0 | 0.0 | 0.00 | 0.00 | 0.00 | 99 | 976.3 |
| 20260906001051 | 74 | 210 | 0.0 | 0.0 | 0.00 | 0.00 | 0.00 | 99 | 976.2 |
| 20260906000547 | 74 | 208 | 0.0 | 0.0 | 0.00 | 0.00 | 0.00 | 99 | 975.9 |
| 20260906000042 | 74 | 209 | 0.0 | 0.0 | 0.00 | 0.00 | 0.00 | 99 | 976.2 |
| 20260905235541 | 74 | 209 | 0.0 | 0.0 | 0.00 | 0.00 | 0.00 | 99 | 975.9 |
| 20260905235037 | 73 | 209 | 0.0 | 0.0 | 0.00 | 0.00 | 0.00 | 99 | 976.1 |
| 20260905234532 | 73 | 209 | 0.0 | 0.0 | 0.00 | 0.00 | 0.00 | 99 | 975.7 |
| 20260905234027 | 73 | 209 | 0.0 | 0.0 | 0.00 | 0.00 | 0.00 | 99 | 975.9 |
| 20260905233522 | 73 | 209 | 0.0 | 0.0 | 0.00 | 0.00 | 0.00 | 99 | 975.6 |
| 20260905233021 | 73 | 209 | 0.0 | 0.0 | 0.00 | 0.00 | 0.00 | 99 | 975.7 |
| 20260905232517 | 73 | 209 | 0.0 | 0.0 | 0.00 | 0.00 | 0.00 | 99 | 975.5 |
| 20260905232013 | 73 | 209 | 0.0 | 0.0 | 0.00 | 0.00 | 0.00 | 99 | 975.7 |
| 20260905231508 | 73 | 209 | 0.0 | 0.0 | 0.00 | 0.00 | 0.00 | 99 | 975.7 |
| 20260905231004 | 73 | 209 | 0.0 | 0.0 | 0.00 | 0.00 | 0.00 | 99 | 975.6 |
| 20260905230503 | 73 | 209 | 0.0 | 0.0 | 0.00 | 0.00 | 0.00 | 99 | 975.6 |
| 20260905230001 | 73 | 211 | 0.0 | 0.0 | 0.00 | 0.00 | 0.00 | 99 | 975.7 |
| 20260905225456 | 73 | 216 | 0.0 | 0.0 | 0.00 | 0.00 | 0.00 | 99 | 975.5 |
| 20260905224951 | 73 | 216 | 0.0 | 0.0 | 0.00 | 0.00 | 0.00 | 99 | 975.7 |
| 20260905224446 | 73 | 216 | 0.0 | 0.0 | 0.00 | 0.00 | 0.00 | 99 | 975.6 |
| 20260905223945 | 73 | 217 | 0.0 | 0.0 | 0.00 | 0.00 | 0.00 | 99 | 975.3 |
| 20260905223443 | 73 | 217 | 0.0 | 0.0 | 0.00 | 0.00 | 0.00 | 99 | 975.3 |
| 20260905222943 | 73 | 217 | 0.0 | 0.0 | 0.00 | 0.00 | 0.00 | 99 | 975.5 |
| 20260905222438 | 73 | 217 | 0.0 | 0.0 | 0.00 | 0.00 | 0.00 | 99 | 975.6 |
| 20260905221934 | 73 | 217 | 0.0 | 0.0 | 0.00 | 0.00 | 0.00 | 99 | 975.4 |
| 20260905221430 | 73 | 217 | 0.0 | 0.0 | 0.00 | 0.00 | 0.00 | 99 | 975.4 |
| 20260905220926 | 73 | 217 | 0.0 | 0.0 | 0.00 | 0.00 | 0.00 | 99 | 975.3 |
| 20260905220422 | 73 | 217 | 0.0 | 0.0 | 0.00 | 0.00 | 0.00 | 99 | 975.3 |
| 20260905215921 | 73 | 217 | 0.0 | 0.0 | 0.00 | 0.00 | 0.00 | 99 | 975.3 |
| 20260905215416 | 73 | 217 | 0.0 | 0.0 | 0.00 | 0.00 | 0.00 | 99 | 975.2 |
| 20260905214913 | 73 | 217 | 0.0 | 0.0 | 0.00 | 0.00 | 0.00 | 99 | 975.1 |
| 20260905214409 | 73 | 217 | 0.0 | 0.0 | 0.00 | 0.00 | 0.00 | 99 | 975.0 |
| 20260905213908 | 73 | 217 | 0.0 | 0.0 | 0.00 | 0.00 | 0.00 | 99 | 975.2 |
| 20260905213405 | 73 | 217 | 0.0 | 0.0 | 0.00 | 0.00 | 0.00 | 99 | 974.7 |
| 20260905212900 | 73 | 217 | 0.0 | 0.0 | 0.00 | 0.00 | 0.00 | 99 | 974.8 |
| 20260905212400 | 73 | 217 | 0.0 | 0.0 | 0.00 | 0.00 | 0.00 | 99 | 974.9 |
| 20260905211853 | 73 | 217 | 0.0 | 0.0 | 0.00 | 0.00 | 0.00 | 99 | 974.9 |
| 20260905211349 | 73 | 217 | 0.0 | 0.0 | 0.00 | 0.00 | 0.00 | 99 | 974.9 |
| 20260905210846 | 73 | 217 | 0.0 | 0.0 | 0.00 | 0.00 | 0.00 | 99 | 974.9 |
| 20260905210345 | 73 | 216 | 0.0 | 0.0 | 0.00 | 0.00 | 0.00 | 99 | 974.9 |
| 20260905205844 | 73 | 216 | 0.0 | 0.0 | 0.00 | 0.00 | 0.00 | 99 | 974.9 |
| 20260905205339 | 73 | 216 | 0.0 | 0.0 | 0.00 | 0.00 | 0.00 | 99 | 975.1 |
| 20260905204838 | 73 | 216 | 0.0 | 0.0 | 0.00 | 0.00 | 0.00 | 99 | 974.8 |
| 20260905204335 | 73 | 216 | 0.0 | 0.0 | 0.00 | 0.00 | 0.00 | 99 | 974.8 |
| 20260905203833 | 73 | 216 | 0.0 | 0.0 | 0.00 | 0.00 | 0.00 | 99 | 975.0 |
| 20260905203329 | 73 | 216 | 0.0 | 0.0 | 0.00 | 0.00 | 0.00 | 99 | 974.9 |
| 20260905202825 | 73 | 215 | 0.0 | 0.0 | 0.00 | 0.00 | 0.00 | 99 | 974.9 |
| 20260905202320 | 73 | 215 | 0.0 | 0.0 | 0.00 | 0.00 | 0.00 | 99 | 974.8 |
| 20260905201815 | 73 | 215 | 0.0 | 0.0 | 0.00 | 0.00 | 0.00 | 99 | 975.0 |
| 20260905201310 | 73 | 215 | 0.0 | 0.0 | 0.00 | 0.00 | 0.00 | 99 | 975.0 |
| 20260905200804 | 73 | 215 | 0.0 | 0.0 | 0.00 | 0.00 | 0.00 | 99 | 974.9 |
| 20260905200300 | 73 | 215 | 0.0 | 0.0 | 0.00 | 0.00 | 0.00 | 99 | 975.3 |
| 20260905195753 | 73 | 215 | 0.0 | 0.0 | 0.00 | 0.00 | 0.00 | 99 | 975.3 |
| 20260905195248 | 73 | 215 | 0.0 | 0.0 | 0.00 | 0.00 | 0.00 | 99 | 975.0 |
| 20260905194744 | 73 | 215 | 0.0 | 0.0 | 0.00 | 0.00 | 0.00 | 99 | 975.0 |
| 20260905194243 | 73 | 215 | 0.0 | 0.0 | 0.00 | 0.00 | 0.00 | 99 | 975.2 |
| 20260905193742 | 73 | 215 | 0.0 | 0.0 | 0.00 | 0.00 | 0.00 | 99 | 975.3 |
| 20260905193238 | 73 | 215 | 0.0 | 0.0 | 0.00 | 0.00 | 0.00 | 99 | 975.2 |
| 20260905192733 | 73 | 215 | 0.0 | 0.0 | 0.00 | 0.00 | 0.00 | 99 | 975.4 |
| 20260905192229 | 74 | 215 | 0.0 | 0.0 | 0.00 | 0.00 | 0.00 | 99 | 975.5 |
| 20260905191729 | 74 | 215 | 0.0 | 0.0 | 0.00 | 0.00 | 0.00 | 99 | 975.5 |
| 20260905191227 | 74 | 215 | 0.0 | 0.0 | 0.00 | 0.00 | 0.00 | 99 | 975.4 |
| 20260905190726 | 74 | 215 | 0.0 | 0.0 | 0.00 | 0.00 | 0.00 | 99 | 975.6 |
| 20260905190225 | 74 | 215 | 0.0 | 0.0 | 0.00 | 0.00 | 0.00 | 99 | 975.6 |
| 20260905185724 | 74 | 212 | 0.0 | 0.0 | 0.00 | 0.00 | 0.00 | 99 | 975.5 |
| 20260905185219 | 74 | 211 | 0.0 | 0.0 | 0.00 | 0.00 | 0.00 | 99 | 975.6 |
| 20260905184718 | 74 | 215 | 0.0 | 0.0 | 0.00 | 0.00 | 0.00 | 99 | 975.6 |
| 20260905184218 | 74 | 215 | 0.0 | 0.0 | 0.00 | 0.00 | 0.00 | 99 | 975.6 |
| 20260905183712 | 75 | 215 | 0.0 | 0.0 | 0.00 | 0.00 | 0.00 | 99 | 975.6 |
| 20260905183207 | 75 | 215 | 0.0 | 0.0 | 0.00 | 0.00 | 0.00 | 99 | 975.6 |
| 20260905182706 | 75 | 215 | 0.0 | 0.0 | 0.00 | 0.00 | 0.00 | 99 | 975.6 |
| 20260905182201 | 75 | 215 | 0.0 | 0.0 | 0.00 | 0.00 | 0.00 | 99 | 975.6 |
| 20260905181656 | 75 | 215 | 0.0 | 0.0 | 0.00 | 0.00 | 0.00 | 99 | 975.5 |
| 20260905181155 | 75 | 215 | 0.0 | 0.0 | 0.00 | 0.00 | 0.00 | 99 | 975.8 |
| 20260905180650 | 75 | 215 | 0.0 | 0.0 | 0.00 | 0.00 | 0.00 | 99 | 975.8 |
| 20260905180146 | 75 | 215 | 0.0 | 0.0 | 0.00 | 0.00 | 0.00 | 99 | 975.6 |
| 20260905175644 | 75 | 215 | 0.0 | 0.0 | 0.00 | 0.00 | 0.00 | 99 | 975.6 |
| 20260905175140 | 75 | 215 | 0.0 | 0.0 | 0.00 | 0.00 | 0.00 | 99 | 975.7 |
| 20260905174635 | 75 | 215 | 0.0 | 0.0 | 0.00 | 0.00 | 0.00 | 99 | 975.8 |
| 20260905174131 | 75 | 215 | 0.0 | 0.0 | 0.00 | 0.00 | 0.00 | 99 | 975.8 |
| 20260905173626 | 75 | 216 | 0.0 | 0.0 | 0.00 | 0.00 | 0.00 | 99 | 975.8 |
| 20260905173122 | 76 | 217 | 0.0 | 0.0 | 0.00 | 0.00 | 0.00 | 99 | 976.0 |
| 20260905172621 | 76 | 217 | 0.0 | 0.0 | 0.00 | 0.00 | 0.00 | 99 | 975.8 |
| 20260905172116 | 76 | 216 | 0.0 | 0.0 | 0.00 | 0.00 | 0.00 | 99 | 975.9 |
| 20260905171612 | 76 | 216 | 0.0 | 0.0 | 0.00 | 0.00 | 0.00 | 99 | 975.9 |
| 20260905171108 | 76 | 216 | 0.0 | 0.0 | 0.00 | 0.00 | 0.00 | 99 | 975.9 |
| 20260905170604 | 76 | 216 | 0.0 | 0.0 | 0.00 | 0.00 | 0.00 | 99 | 976.0 |
| 20260905170059 | 76 | 216 | 0.0 | 0.0 | 0.00 | 0.04 | 0.04 | 99 | 976.1 |
| 20260905165554 | 76 | 216 | 0.0 | 0.0 | 0.00 | 0.04 | 0.04 | 99 | 975.9 |
| 20260905165049 | 76 | 216 | 0.0 | 0.0 | 0.00 | 0.04 | 0.04 | 99 | 976.1 |
| 20260905164544 | 76 | 216 | 0.0 | 0.0 | 0.00 | 0.04 | 0.04 | 99 | 976.0 |
| 20260905164038 | 76 | 216 | 0.0 | 0.0 | 0.00 | 0.04 | 0.04 | 99 | 976.2 |
| 20260905163534 | 76 | 216 | 0.0 | 0.0 | 0.00 | 0.04 | 0.04 | 99 | 976.1 |
| 20260905163030 | 76 | 216 | 0.0 | 0.0 | 0.00 | 0.04 | 0.04 | 99 | 976.2 |
| 20260905162526 | 76 | 216 | 0.0 | 0.0 | 0.00 | 0.04 | 0.04 | 99 | 976.1 |
| 20260905162015 | 76 | 216 | 0.0 | 0.0 | 0.00 | 0.04 | 0.04 | 99 | 976.3 |
| 20260905161515 | 76 | 216 | 0.0 | 0.0 | 0.00 | 0.04 | 0.04 | 99 | 976.2 |
| 20260905161012 | 76 | 216 | 0.0 | 0.0 | 0.00 | 0.04 | 0.04 | 99 | 976.1 |
| 20260905160506 | 76 | 216 | 0.0 | 0.0 | 0.00 | 0.04 | 0.04 | 99 | 976.1 |
| 20260905160005 | 76 | 216 | 0.0 | 0.0 | 0.00 | 0.04 | 0.04 | 99 | 976.1 |
| 20260905155500 | 76 | 216 | 0.0 | 0.0 | 0.00 | 0.04 | 0.04 | 99 | 976.1 |
| 20260905154958 | 77 | 216 | 0.0 | 0.0 | 0.00 | 0.04 | 0.04 | 99 | 976.3 |
| 20260905154454 | 77 | 217 | 0.0 | 0.0 | 0.00 | 0.04 | 0.04 | 99 | 976.1 |
| 20260905153949 | 77 | 216 | 0.0 | 0.0 | 0.00 | 0.04 | 0.04 | 99 | 976.1 |
| 20260905153446 | 77 | 216 | 0.0 | 0.0 | 0.00 | 0.04 | 0.04 | 99 | 976.1 |
| 20260905152945 | 77 | 216 | 0.0 | 0.0 | 0.00 | 0.04 | 0.04 | 99 | 976.3 |
| 20260905152445 | 77 | 217 | 0.0 | 0.0 | 0.00 | 0.04 | 0.04 | 99 | 976.3 |
| 20260905151940 | 77 | 217 | 0.0 | 0.0 | 0.00 | 0.04 | 0.04 | 99 | 976.2 |
| 20260905151436 | 77 | 217 | 0.0 | 0.0 | 0.00 | 0.04 | 0.04 | 99 | 976.4 |
| 20260905150931 | 77 | 217 | 0.0 | 0.0 | 0.00 | 0.04 | 0.04 | 99 | 976.3 |
| 20260905150431 | 77 | 217 | 0.0 | 0.0 | 0.00 | 0.04 | 0.04 | 99 | 976.1 |
| 20260905145927 | 77 | 217 | 0.0 | 0.0 | 0.00 | 0.04 | 0.04 | 99 | 976.0 |
| 20260905145421 | 77 | 217 | 0.0 | 0.0 | 0.00 | 0.04 | 0.04 | 99 | 976.1 |
| 20260905144921 | 77 | 217 | 0.0 | 0.0 | 0.00 | 0.04 | 0.04 | 99 | 976.1 |
| 20260905144417 | 77 | 217 | 0.0 | 0.0 | 0.00 | 0.04 | 0.04 | 99 | 976.1 |
| 20260905143915 | 78 | 209 | 0.0 | 0.0 | 0.00 | 0.04 | 0.04 | 99 | 975.9 |
| 20260905143409 | 78 | 209 | 0.0 | 0.0 | 0.00 | 0.04 | 0.04 | 99 | 975.8 |
| 20260905142903 | 78 | 209 | 0.0 | 0.0 | 0.00 | 0.04 | 0.04 | 99 | 975.9 |
| 20260905142401 | 78 | 209 | 0.0 | 0.0 | 0.00 | 0.04 | 0.04 | 99 | 975.9 |
| 20260905141858 | 78 | 209 | 0.0 | 0.0 | 0.00 | 0.04 | 0.04 | 99 | 975.9 |
| 20260905141347 | 78 | 216 | 0.0 | 0.0 | 0.00 | 0.04 | 0.04 | 99 | 975.7 |
| 20260905140843 | 78 | 217 | 0.0 | 0.0 | 0.00 | 0.04 | 0.04 | 99 | 975.8 |
| 20260905140343 | 78 | 216 | 0.0 | 0.0 | 0.00 | 0.04 | 0.04 | 99 | 975.5 |
| 20260905135841 | 78 | 216 | 0.0 | 0.0 | 0.00 | 0.04 | 0.04 | 99 | 975.7 |
| 20260905135338 | 78 | 216 | 0.0 | 0.0 | 0.00 | 0.04 | 0.04 | 99 | 975.5 |
| 20260905134833 | 78 | 216 | 0.0 | 0.0 | 0.00 | 0.04 | 0.04 | 99 | 975.7 |
| 20260905134326 | 78 | 216 | 0.0 | 0.0 | 0.00 | 0.04 | 0.04 | 99 | 975.6 |
| 20260905133821 | 78 | 216 | 0.0 | 0.0 | 0.00 | 0.04 | 0.04 | 99 | 975.6 |
| 20260905133316 | 78 | 216 | 0.0 | 0.0 | 0.00 | 0.04 | 0.04 | 99 | 975.6 |
| 20260905132815 | 78 | 216 | 0.0 | 0.0 | 0.00 | 0.04 | 0.04 | 99 | 975.6 |
| 20260905132310 | 78 | 216 | 0.0 | 0.0 | 0.00 | 0.04 | 0.04 | 99 | 975.2 |
| 20260905131805 | 78 | 216 | 0.0 | 0.0 | 0.00 | 0.04 | 0.04 | 99 | 975.3 |
| 20260905131301 | 78 | 216 | 0.0 | 0.0 | 0.00 | 0.04 | 0.04 | 99 | 975.2 |
| 20260905130755 | 78 | 216 | 0.0 | 0.0 | 0.00 | 0.04 | 0.04 | 99 | 975.1 |
| 20260905130254 | 78 | 216 | 0.0 | 0.0 | 0.00 | 0.04 | 0.04 | 99 | 974.9 |
| 20260905125750 | 78 | 216 | 0.0 | 0.0 | 0.00 | 0.04 | 0.04 | 99 | 974.8 |
| 20260905125245 | 78 | 216 | 0.0 | 0.0 | 0.00 | 0.04 | 0.04 | 99 | 975.0 |
| 20260905124741 | 78 | 216 | 0.0 | 0.0 | 0.00 | 0.04 | 0.04 | 99 | 974.8 |
| 20260905124237 | 78 | 216 | 0.0 | 0.0 | 0.00 | 0.04 | 0.04 | 99 | 974.9 |
| 20260905123732 | 78 | 216 | 0.0 | 0.0 | 0.00 | 0.04 | 0.04 | 99 | 974.9 |
| 20260905123229 | 78 | 216 | 0.0 | 0.0 | 0.00 | 0.04 | 0.04 | 99 | 974.7 |
| 20260905122728 | 79 | 216 | 0.0 | 0.0 | 0.00 | 0.04 | 0.04 | 99 | 974.9 |
| 20260905122223 | 79 | 216 | 0.0 | 0.0 | 0.00 | 0.04 | 0.04 | 99 | 974.6 |
| 20260905121718 | 79 | 216 | 0.0 | 0.0 | 0.00 | 0.04 | 0.04 | 99 | 974.8 |
| 20260905121214 | 79 | 216 | 0.0 | 0.0 | 0.00 | 0.04 | 0.04 | 99 | 974.5 |
| 20260905120713 | 79 | 216 | 0.0 | 0.0 | 0.00 | 0.04 | 0.04 | 99 | 974.6 |
| 20260905120207 | 79 | 216 | 0.0 | 0.0 | 0.00 | 0.04 | 0.04 | 99 | 974.1 |
| 20260905115702 | 79 | 216 | 0.0 | 0.0 | 0.00 | 0.04 | 0.04 | 99 | 974.3 |
| 20260905115157 | 79 | 216 | 0.0 | 0.0 | 0.00 | 0.04 | 0.04 | 99 | 974.4 |
| 20260905114656 | 79 | 216 | 0.0 | 0.0 | 0.00 | 0.04 | 0.04 | 99 | 974.1 |
| 20260905114154 | 79 | 216 | 0.0 | 0.0 | 0.00 | 0.04 | 0.04 | 97 | 974.0 |
| 20260905113649 | 79 | 216 | 0.0 | 0.0 | 0.00 | 0.04 | 0.04 | 97 | 974.2 |
| 20260905113145 | 79 | 216 | 0.0 | 0.0 | 0.00 | 0.04 | 0.04 | 97 | 974.0 |
| 20260905112639 | 79 | 216 | 0.0 | 0.0 | 0.00 | 0.04 | 0.04 | 97 | 973.8 |
| 20260905112135 | 80 | 216 | 0.0 | 0.0 | 0.00 | 0.04 | 0.04 | 96 | 974.0 |
| 20260905111635 | 80 | 216 | 0.0 | 0.0 | 0.00 | 0.04 | 0.04 | 96 | 973.6 |
| 20260905111134 | 80 | 216 | 0.0 | 0.0 | 0.00 | 0.04 | 0.04 | 95 | 973.8 |
| 20260905110633 | 80 | 216 | 0.0 | 0.0 | 0.00 | 0.04 | 0.04 | 95 | 973.5 |
| 20260905110129 | 80 | 216 | 0.0 | 0.0 | 0.00 | 0.04 | 0.04 | 96 | 973.6 |
| 20260905105624 | 80 | 216 | 0.0 | 0.0 | 0.00 | 0.04 | 0.04 | 96 | 973.4 |
| 20260905105123 | 80 | 216 | 0.0 | 0.0 | 0.00 | 0.04 | 0.04 | 95 | 973.4 |
| 20260905104618 | 80 | 216 | 0.0 | 0.0 | 0.00 | 0.04 | 0.04 | 95 | 973.5 |
| 20260905104113 | 80 | 216 | 0.0 | 0.0 | 0.00 | 0.04 | 0.04 | 96 | 973.1 |
| 20260905103609 | 80 | 216 | 0.0 | 0.0 | 0.00 | 0.04 | 0.04 | 97 | 973.4 |
| 20260905103104 | 79 | 216 | 0.0 | 0.0 | 0.00 | 0.04 | 0.04 | 97 | 973.4 |
| 20260905102600 | 79 | 216 | 0.0 | 0.0 | 0.00 | 0.04 | 0.04 | 96 | 973.7 |
| 20260905102056 | 79 | 216 | 0.0 | 0.0 | 0.00 | 0.04 | 0.04 | 97 | 973.3 |
| 20260905101554 | 79 | 216 | 0.0 | 0.0 | 0.00 | 0.04 | 0.04 | 96 | 973.4 |
| 20260905101053 | 79 | 216 | 0.0 | 0.0 | 0.00 | 0.04 | 0.04 | 96 | 973.5 |
| 20260905100549 | 79 | 216 | 0.0 | 0.0 | 0.00 | 0.04 | 0.04 | 95 | 973.4 |
| 20260905100049 | 79 | 216 | 0.0 | 0.0 | 0.00 | 0.04 | 0.04 | 98 | 973.5 |
| 20260905095543 | 80 | 216 | 0.0 | 0.0 | 0.00 | 0.04 | 0.04 | 97 | 973.3 |
| 20260905095039 | 80 | 216 | 0.0 | 0.0 | 0.00 | 0.04 | 0.04 | 96 | 973.6 |
| 20260905094534 | 80 | 216 | 0.0 | 0.0 | 0.00 | 0.04 | 0.04 | 96 | 973.5 |
| 20260905094033 | 80 | 216 | 0.0 | 0.0 | 0.00 | 0.04 | 0.04 | 97 | 973.4 |
| 20260905093533 | 80 | 216 | 0.0 | 0.0 | 0.00 | 0.04 | 0.04 | 95 | 973.5 |
| 20260905093029 | 80 | 216 | 0.0 | 0.0 | 0.00 | 0.04 | 0.04 | 94 | 973.3 |
| 20260905092529 | 80 | 216 | 1.0 | 1.0 | 0.00 | 0.04 | 0.04 | 91 | 973.5 |
| 20260905092025 | 80 | 215 | 0.0 | 0.0 | 0.00 | 0.04 | 0.04 | 90 | 973.7 |
| 20260905091524 | 81 | 216 | 1.0 | 1.0 | 0.00 | 0.04 | 0.04 | 90 | 973.6 |
| 20260905091019 | 83 | 213 | 0.0 | 0.0 | 0.00 | 0.04 | 0.04 | 89 | 973.7 |
| 20260905090519 | 84 | 210 | 0.0 | 0.0 | 0.00 | 0.04 | 0.04 | 86 | 973.6 |
| 20260905090014 | 85 | 210 | 0.0 | 0.0 | 0.00 | 0.04 | 0.04 | 85 | 973.6 |
| 20260905085513 | 85 | 210 | 0.0 | 0.0 | 0.00 | 0.04 | 0.04 | 86 | 973.4 |
| 20260905085009 | 86 | 210 | 0.0 | 0.0 | 0.00 | 0.04 | 0.04 | 86 | 973.4 |
| 20260905084509 | 86 | 182 | 0.0 | 0.0 | 0.00 | 0.04 | 0.04 | 85 | 973.5 |
| 20260905084003 | 86 | 182 | 0.0 | 0.0 | 0.00 | 0.04 | 0.04 | 85 | 973.5 |
| 20260905083458 | 85 | 213 | 0.0 | 0.0 | 0.00 | 0.04 | 0.04 | 88 | 973.6 |
| 20260905082955 | 85 | 206 | 0.0 | 0.0 | 0.00 | 0.04 | 0.04 | 90 | 973.6 |
| 20260905082450 | 84 | 211 | 0.0 | 0.0 | 0.00 | 0.04 | 0.04 | 87 | 973.4 |
| 20260905081945 | 84 | 211 | 0.0 | 0.0 | 0.00 | 0.04 | 0.04 | 90 | 973.6 |
| 20260905081440 | 84 | 209 | 0.0 | 0.0 | 0.00 | 0.04 | 0.04 | 88 | 973.5 |
| 20260905080939 | 85 | 213 | 0.0 | 0.0 | 0.00 | 0.04 | 0.04 | 87 | 973.5 |
| 20260905080434 | 85 | 213 | 0.0 | 0.0 | 0.00 | 0.04 | 0.04 | 87 | 973.7 |
| 20260905075933 | 86 | 209 | 0.0 | 0.0 | 0.00 | 0.04 | 0.04 | 87 | 973.8 |
| 20260905075427 | 86 | 202 | 0.0 | 0.0 | 0.00 | 0.04 | 0.04 | 87 | 973.5 |
| 20260905074926 | 86 | 186 | 0.0 | 0.0 | 0.00 | 0.04 | 0.04 | 87 | 973.6 |
| 20260905074422 | 87 | 173 | 0.0 | 0.0 | 0.00 | 0.04 | 0.04 | 86 | 973.8 |
| 20260905073918 | 87 | 210 | 0.0 | 0.0 | 0.00 | 0.04 | 0.04 | 88 | 973.8 |
| 20260905073413 | 87 | 209 | 0.0 | 0.0 | 0.00 | 0.04 | 0.04 | 87 | 973.9 |
| 20260905072908 | 87 | 202 | 0.0 | 0.0 | 0.00 | 0.04 | 0.04 | 86 | 973.9 |
| 20260905072403 | 87 | 211 | 0.0 | 0.0 | 0.00 | 0.04 | 0.04 | 88 | 973.7 |
| 20260905071858 | 87 | 212 | 0.0 | 0.0 | 0.00 | 0.04 | 0.04 | 88 | 974.0 |
| 20260905071349 | 87 | 212 | 0.0 | 0.0 | 0.00 | 0.04 | 0.04 | 89 | 973.9 |
| 20260905070849 | 87 | 210 | 0.0 | 0.0 | 0.00 | 0.04 | 0.04 | 87 | 974.2 |
| 20260905070345 | 87 | 211 | 0.0 | 0.0 | 0.00 | 0.04 | 0.04 | 85 | 974.0 |
| 20260905065845 | 87 | 207 | 0.0 | 0.0 | 0.00 | 0.04 | 0.04 | 85 | 974.0 |
| 20260905065343 | 87 | 210 | 0.0 | 0.0 | 0.00 | 0.04 | 0.04 | 87 | 974.2 |
| 20260905064838 | 87 | 210 | 0.0 | 0.0 | 0.00 | 0.04 | 0.04 | 85 | 974.4 |
| 20260905064334 | 87 | 210 | 0.0 | 0.0 | 0.00 | 0.04 | 0.04 | 87 | 974.4 |
| 20260905063832 | 86 | 210 | 0.0 | 0.0 | 0.00 | 0.04 | 0.04 | 87 | 974.5 |
| 20260905063328 | 84 | 202 | 0.0 | 0.0 | 0.00 | 0.04 | 0.04 | 89 | 974.6 |
| 20260905062824 | 84 | 200 | 0.0 | 0.0 | 0.00 | 0.04 | 0.04 | 90 | 974.9 |
| 20260905062319 | 84 | 196 | 0.0 | 0.0 | 0.00 | 0.04 | 0.04 | 89 | 975.1 |
| 20260905061814 | 84 | 212 | 0.0 | 0.0 | 0.00 | 0.04 | 0.04 | 91 | 975.1 |
| 20260905061308 | 84 | 162 | 0.0 | 0.0 | 0.00 | 0.04 | 0.04 | 87 | 975.2 |